Time,TemperatureF,DewpointF,PressureIn,WindDirection,WindDirectionDegrees,WindSpeedMPH,WindSpeedGustMPH,Humidity,HourlyPrecipIn,Conditions,Clouds,dailyrainin,SoftwareType,DateUTC
2013-01-04 00:07:00,28.8,23.1,30.34,North,359,0.0,0.0,79,0.00,,,0.00,WeatherCatV1.10B1784,2013-01-04 05:07:00,
2013-01-04 00:12:00,28.8,23.1,30.34,North,359,0.0,0.0,79,0.00,,,0.00,WeatherCatV1.10B1784,2013-01-04 05:12:00,
2013-01-04 00:17:00,28.7,23.0,30.35,North,359,0.0,0.0,79,0.00,,,0.00,WeatherCatV1.10B1784,2013-01-04 05:17:00,
2013-01-04 00:22:00,28.7,23.0,30.35,North,359,0.0,0.0,79,0.00,,,0.00,WeatherCatV1.10B1784,2013-01-04 05:22:00,
2013-01-04 00:27:00,28.7,23.0,30.35,North,359,0.0,0.0,79,0.00,,,0.00,WeatherCatV1.10B1784,2013-01-04 05:27:00,
2013-01-04 00:32:00,28.5,22.8,30.35,North,359,0.0,0.0,79,0.00,,,0.00,WeatherCatV1.10B1784,2013-01-04 05:32:00,
2013-01-04 00:37:00,28.4,22.7,30.35,North,359,0.0,0.0,79,0.00,,,0.00,WeatherCatV1.10B1784,2013-01-04 05:37:00,
2013-01-04 00:42:00,28.4,22.7,30.35,North,359,0.0,0.0,79,0.00,,,0.00,WeatherCatV1.10B1784,2013-01-04 05:42:00,
2013-01-04 00:47:00,28.4,22.7,30.35,North,359,0.0,0.0,79,0.00,,,0.00,WeatherCatV1.10B1784,2013-01-04 05:47:00,
2013-01-04 00:52:00,28.4,22.4,30.35,North,359,0.0,0.0,78,0.00,,,0.00,WeatherCatV1.10B1784,2013-01-04 05:52:00,
2013-01-04 00:57:00,28.5,22.5,30.35,North,359,0.0,0.0,78,0.00,,,0.00,WeatherCatV1.10B1784,2013-01-04 05:57:00,
2013-01-04 01:02:00,28.5,22.2,30.35,North,359,0.0,0.0,77,0.00,,,0.00,WeatherCatV1.10B1784,2013-01-04 06:02:00,
2013-01-04 01:07:00,28.4,22.4,30.35,North,359,0.0,0.0,78,0.00,,,0.00,WeatherCatV1.10B1784,2013-01-04 06:07:00,
2013-01-04 01:12:00,28.4,22.1,30.35,North,359,0.0,0.0,77,0.00,,,0.00,WeatherCatV1.10B1784,2013-01-04 06:12:00,
2013-01-04 01:17:00,28.4,22.1,30.34,North,359,0.0,0.0,77,0.00,,,0.00,WeatherCatV1.10B1784,2013-01-04 06:17:00,
2013-01-04 01:22:00,28.4,22.1,30.34,North,359,0.0,0.0,77,0.00,,,0.00,WeatherCatV1.10B1784,2013-01-04 06:22:00,
2013-01-04 01:27:00,28.4,22.1,30.34,North,359,0.0,0.0,77,0.00,,,0.00,WeatherCatV1.10B1784,2013-01-04 06:27:00,
2013-01-04 01:32:00,28.2,21.6,30.33,North,359,0.0,0.0,76,0.00,,,0.00,WeatherCatV1.10B1784,2013-01-04 06:32:00,
2013-01-04 01:37:00,28.2,21.6,30.33,North,359,0.0,0.0,76,0.00,,,0.00,WeatherCatV1.10B1784,2013-01-04 06:37:00,
2013-01-04 01:42:00,28.1,21.5,30.33,North,359,0.0,0.0,76,0.00,,,0.00,WeatherCatV1.10B1784,2013-01-04 06:42:00,
2013-01-04 01:47:00,28.1,21.5,30.33,North,359,0.0,0.0,76,0.00,,,0.00,WeatherCatV1.10B1784,2013-01-04 06:47:00,
2013-01-04 01:52:00,28.1,21.2,30.33,North,357,0.0,0.0,75,0.00,,,0.00,WeatherCatV1.10B1784,2013-01-04 06:52:00,
2013-01-04 01:57:00,28.1,21.2,30.33,North,359,0.0,0.0,75,0.00,,,0.00,WeatherCatV1.10B1784,2013-01-04 06:57:00,
2013-01-04 02:02:00,28.1,20.9,30.32,North,359,0.0,0.0,74,0.00,,,0.00,WeatherCatV1.10B1784,2013-01-04 07:02:00,
2013-01-04 02:07:00,28.2,20.7,30.32,North,359,0.0,0.0,73,0.00,,,0.00,WeatherCatV1.10B1784,2013-01-04 07:07:00,
2013-01-04 02:12:00,28.2,20.7,30.32,North,359,0.0,0.0,73,0.00,,,0.00,WeatherCatV1.10B1784,2013-01-04 07:12:00,
2013-01-04 02:17:00,28.2,20.7,30.34,North,359,0.0,0.0,73,0.00,,,0.00,WeatherCatV1.10B1784,2013-01-04 07:17:00,
2013-01-04 02:22:00,28.2,20.7,30.34,North,359,0.0,0.0,73,0.00,,,0.00,WeatherCatV1.10B1784,2013-01-04 07:22:00,
2013-01-04 02:27:00,28.2,20.7,30.34,North,359,0.0,0.0,73,0.00,,,0.00,WeatherCatV1.10B1784,2013-01-04 07:27:00,
2013-01-04 02:32:00,28.2,20.4,30.35,North,359,0.0,0.0,72,0.00,,,0.00,WeatherCatV1.10B1784,2013-01-04 07:32:00,
2013-01-04 02:37:00,28.2,20.4,30.35,North,359,0.0,0.0,72,0.00,,,0.00,WeatherCatV1.10B1784,2013-01-04 07:37:00,
2013-01-04 02:42:00,28.1,20.3,30.35,North,359,0.0,0.0,72,0.00,,,0.00,WeatherCatV1.10B1784,2013-01-04 07:42:00,
2013-01-04 02:47:00,28.1,20.6,30.35,North,359,0.0,0.0,73,0.00,,,0.00,WeatherCatV1.10B1784,2013-01-04 07:47:00,
2013-01-04 02:52:00,27.9,20.4,30.35,North,359,0.0,0.0,73,0.00,,,0.00,WeatherCatV1.10B1784,2013-01-04 07:52:00,
2013-01-04 02:57:00,27.8,20.6,30.35,North,359,0.0,0.0,74,0.00,,,0.00,WeatherCatV1.10B1784,2013-01-04 07:57:00,
2013-01-04 03:02:00,27.6,20.4,30.35,North,359,0.0,0.0,74,0.00,,,0.00,WeatherCatV1.10B1784,2013-01-04 08:02:00,
2013-01-04 03:07:00,27.5,20.6,30.35,North,359,0.0,0.0,75,0.00,,,0.00,WeatherCatV1.10B1784,2013-01-04 08:07:00,
2013-01-04 03:12:00,27.3,20.4,30.35,North,359,0.0,0.0,75,0.00,,,0.00,WeatherCatV1.10B1784,2013-01-04 08:12:00,
2013-01-04 03:17:00,27.2,20.3,30.37,North,359,0.0,0.0,75,0.00,,,0.00,WeatherCatV1.10B1784,2013-01-04 08:17:00,
2013-01-04 03:22:00,27.0,20.2,30.37,North,359,0.0,0.0,75,0.00,,,0.00,WeatherCatV1.10B1784,2013-01-04 08:22:00,
2013-01-04 03:27:00,26.9,20.1,30.37,North,359,0.0,0.0,75,0.00,,,0.00,WeatherCatV1.10B1784,2013-01-04 08:27:00,
2013-01-04 03:32:00,26.9,20.1,30.37,North,359,0.0,0.0,75,0.00,,,0.00,WeatherCatV1.10B1784,2013-01-04 08:32:00,
2013-01-04 03:37:00,26.9,20.1,30.37,North,359,0.0,0.0,75,0.00,,,0.00,WeatherCatV1.10B1784,2013-01-04 08:37:00,
2013-01-04 03:42:00,26.9,20.1,30.37,North,359,0.0,0.0,75,0.00,,,0.00,WeatherCatV1.10B1784,2013-01-04 08:42:00,
2013-01-04 03:47:00,26.9,20.1,30.36,North,359,0.0,0.0,75,0.00,,,0.00,WeatherCatV1.10B1784,2013-01-04 08:47:00,
2013-01-04 03:52:00,26.7,19.9,30.36,North,359,0.0,0.0,75,0.00,,,0.00,WeatherCatV1.10B1784,2013-01-04 08:52:00,
2013-01-04 03:57:00,26.7,19.5,30.36,North,359,0.0,0.0,74,0.00,,,0.00,WeatherCatV1.10B1784,2013-01-04 08:57:00,
2013-01-04 04:02:00,26.6,19.8,30.36,North,359,0.0,0.0,75,0.00,,,0.00,WeatherCatV1.10B1784,2013-01-04 09:02:00,
2013-01-04 04:07:00,26.6,20.1,30.36,North,359,0.0,0.0,76,0.00,,,0.00,WeatherCatV1.10B1784,2013-01-04 09:07:00,
2013-01-04 04:12:00,26.4,19.3,30.36,North,359,0.0,0.0,74,0.00,,,0.00,WeatherCatV1.10B1784,2013-01-04 09:12:00,
2013-01-04 04:17:00,26.4,19.3,30.36,North,359,0.0,0.0,74,0.00,,,0.00,WeatherCatV1.10B1784,2013-01-04 09:17:00,
2013-01-04 04:22:00,26.4,19.3,30.36,North,359,0.0,0.0,74,0.00,,,0.00,WeatherCatV1.10B1784,2013-01-04 09:22:00,
2013-01-04 04:27:00,26.4,19.3,30.36,North,359,0.0,0.0,74,0.00,,,0.00,WeatherCatV1.10B1784,2013-01-04 09:27:00,
2013-01-04 04:32:00,26.4,18.9,30.36,North,359,0.0,0.0,73,0.00,,,0.00,WeatherCatV1.10B1784,2013-01-04 09:32:00,
2013-01-04 04:37:00,26.4,18.9,30.36,North,359,0.0,0.0,73,0.00,,,0.00,WeatherCatV1.10B1784,2013-01-04 09:37:00,
2013-01-04 04:42:00,26.4,18.9,30.36,North,359,0.0,0.0,73,0.00,,,0.00,WeatherCatV1.10B1784,2013-01-04 09:42:00,
2013-01-04 04:47:00,26.4,18.9,30.35,North,359,0.0,0.0,73,0.00,,,0.00,WeatherCatV1.10B1784,2013-01-04 09:47:00,
2013-01-04 04:52:00,26.4,18.6,30.35,North,359,0.0,0.0,72,0.00,,,0.00,WeatherCatV1.10B1784,2013-01-04 09:52:00,
2013-01-04 04:57:00,26.4,18.9,30.35,North,359,0.0,0.0,73,0.00,,,0.00,WeatherCatV1.10B1784,2013-01-04 09:57:00,
2013-01-04 05:02:00,26.4,18.9,30.36,North,359,0.0,0.0,73,0.00,,,0.00,WeatherCatV1.10B1784,2013-01-04 10:02:00,
2013-01-04 05:07:00,26.3,18.8,30.36,North,359,0.0,0.0,73,0.00,,,0.00,WeatherCatV1.10B1784,2013-01-04 10:07:00,
2013-01-04 05:12:00,26.3,18.5,30.36,North,359,0.0,0.0,72,0.00,,,0.00,WeatherCatV1.10B1784,2013-01-04 10:12:00,
2013-01-04 05:17:00,26.3,18.8,30.36,North,359,0.0,0.0,73,0.00,,,0.00,WeatherCatV1.10B1784,2013-01-04 10:17:00,
2013-01-04 05:22:00,26.1,18.3,30.36,North,359,0.0,0.0,72,0.00,,,0.00,WeatherCatV1.10B1784,2013-01-04 10:22:00,
2013-01-04 05:27:00,26.1,18.3,30.36,North,359,0.0,0.0,72,0.00,,,0.00,WeatherCatV1.10B1784,2013-01-04 10:27:00,
2013-01-04 05:32:00,26.0,18.6,30.36,North,359,0.0,0.0,73,0.00,,,0.00,WeatherCatV1.10B1784,2013-01-04 10:32:00,
2013-01-04 05:37:00,26.0,18.9,30.36,North,359,0.0,0.0,74,0.00,,,0.00,WeatherCatV1.10B1784,2013-01-04 10:37:00,
2013-01-04 05:42:00,26.0,18.9,30.36,North,359,0.0,0.0,74,0.00,,,0.00,WeatherCatV1.10B1784,2013-01-04 10:42:00,
2013-01-04 05:47:00,26.0,18.9,30.36,North,359,0.0,0.0,74,0.00,,,0.00,WeatherCatV1.10B1784,2013-01-04 10:47:00,
2013-01-04 05:52:00,25.8,18.7,30.36,North,359,0.0,0.0,74,0.00,,,0.00,WeatherCatV1.10B1784,2013-01-04 10:52:00,
2013-01-04 05:57:00,25.8,18.7,30.36,North,359,0.0,0.0,74,0.00,,,0.00,WeatherCatV1.10B1784,2013-01-04 10:57:00,
2013-01-04 06:02:00,25.8,18.7,30.36,North,359,0.0,0.0,74,0.00,,,0.00,WeatherCatV1.10B1784,2013-01-04 11:02:00,
2013-01-04 06:07:00,25.8,18.7,30.36,North,359,0.0,0.0,74,0.00,,,0.00,WeatherCatV1.10B1784,2013-01-04 11:07:00,
2013-01-04 06:12:00,25.8,18.7,30.36,North,359,0.0,0.0,74,0.00,,,0.00,WeatherCatV1.10B1784,2013-01-04 11:12:00,
2013-01-04 06:17:00,25.7,18.6,30.37,North,359,0.0,0.0,74,0.00,,,0.00,WeatherCatV1.10B1784,2013-01-04 11:17:00,
2013-01-04 06:22:00,25.7,18.6,30.37,North,359,0.0,0.0,74,0.00,,,0.00,WeatherCatV1.10B1784,2013-01-04 11:22:00,
2013-01-04 06:27:00,25.7,18.6,30.37,North,359,0.0,0.0,74,0.00,,,0.00,WeatherCatV1.10B1784,2013-01-04 11:27:00,
2013-01-04 06:32:00,25.7,18.6,30.37,North,359,0.0,0.0,74,0.00,,,0.00,WeatherCatV1.10B1784,2013-01-04 11:32:00,
2013-01-04 06:37:00,25.7,18.9,30.37,North,359,0.0,0.0,75,0.00,,,0.00,WeatherCatV1.10B1784,2013-01-04 11:37:00,
2013-01-04 06:42:00,25.7,18.9,30.37,North,359,0.0,0.0,75,0.00,,,0.00,WeatherCatV1.10B1784,2013-01-04 11:42:00,
2013-01-04 06:47:00,25.6,18.8,30.37,North,359,0.0,0.0,75,0.00,,,0.00,WeatherCatV1.10B1784,2013-01-04 11:47:00,
2013-01-04 06:52:00,25.6,18.8,30.37,North,359,0.0,0.0,75,0.00,,,0.00,WeatherCatV1.10B1784,2013-01-04 11:52:00,
2013-01-04 06:57:00,25.6,18.8,30.37,North,359,0.0,0.0,75,0.00,,,0.00,WeatherCatV1.10B1784,2013-01-04 11:57:00,
2013-01-04 07:02:00,25.6,18.8,30.38,North,359,0.0,0.0,75,0.00,,,0.00,WeatherCatV1.10B1784,2013-01-04 12:02:00,
2013-01-04 07:07:00,25.6,18.8,30.38,North,359,0.0,0.0,75,0.00,,,0.00,WeatherCatV1.10B1784,2013-01-04 12:07:00,
2013-01-04 07:12:00,25.6,18.8,30.38,North,359,0.0,0.0,75,0.00,,,0.00,WeatherCatV1.10B1784,2013-01-04 12:12:00,
2013-01-04 07:17:00,25.7,18.6,30.39,North,359,0.0,0.0,74,0.00,,,0.00,WeatherCatV1.10B1784,2013-01-04 12:17:00,
2013-01-04 07:22:00,25.7,18.6,30.39,North,359,0.0,0.0,74,0.00,,,0.00,WeatherCatV1.10B1784,2013-01-04 12:22:00,
2013-01-04 07:27:00,25.7,18.6,30.39,North,359,0.0,0.0,74,0.00,,,0.00,WeatherCatV1.10B1784,2013-01-04 12:27:00,
2013-01-04 07:32:00,25.7,18.6,30.39,North,359,0.0,0.0,74,0.00,,,0.00,WeatherCatV1.10B1784,2013-01-04 12:32:00,
2013-01-04 07:37:00,25.7,18.6,30.39,North,359,0.0,0.0,74,0.00,,,0.00,WeatherCatV1.10B1784,2013-01-04 12:37:00,
2013-01-04 07:42:00,25.7,18.6,30.39,North,359,0.0,0.0,74,0.00,,,0.00,WeatherCatV1.10B1784,2013-01-04 12:42:00,
2013-01-04 07:47:00,25.7,18.3,30.39,North,359,0.0,0.0,73,0.00,,,0.00,WeatherCatV1.10B1784,2013-01-04 12:47:00,
2013-01-04 07:52:00,25.7,18.3,30.39,North,359,0.0,0.0,73,0.00,,,0.00,WeatherCatV1.10B1784,2013-01-04 12:52:00,
2013-01-04 07:57:00,25.7,18.3,30.39,North,359,0.0,0.0,73,0.00,,,0.00,WeatherCatV1.10B1784,2013-01-04 12:57:00,
2013-01-04 08:02:00,25.8,18.0,30.40,North,359,0.0,0.0,72,0.00,,,0.00,WeatherCatV1.10B1784,2013-01-04 13:02:00,
2013-01-04 08:07:00,25.8,17.7,30.40,North,359,0.0,0.0,71,0.00,,,0.00,WeatherCatV1.10B1784,2013-01-04 13:07:00,
2013-01-04 08:12:00,26.0,17.9,30.40,North,359,0.0,0.0,71,0.00,,,0.00,WeatherCatV1.10B1784,2013-01-04 13:12:00,
2013-01-04 08:17:00,26.0,17.9,30.40,North,359,0.0,0.0,71,0.00,,,0.00,WeatherCatV1.10B1784,2013-01-04 13:17:00,
2013-01-04 08:22:00,26.1,18.0,30.40,North,359,0.0,0.0,71,0.00,,,0.00,WeatherCatV1.10B1784,2013-01-04 13:22:00,
2013-01-04 08:27:00,26.1,18.0,30.40,North,359,0.0,0.0,71,0.00,,,0.00,WeatherCatV1.10B1784,2013-01-04 13:27:00,
2013-01-04 08:32:00,26.1,18.3,30.40,North,359,0.0,0.0,72,0.00,,,0.00,WeatherCatV1.10B1784,2013-01-04 13:32:00,
2013-01-04 08:37:00,26.3,18.5,30.40,North,359,0.0,0.0,72,0.00,,,0.00,WeatherCatV1.10B1784,2013-01-04 13:37:00,
2013-01-04 08:42:00,26.3,18.5,30.40,North,359,0.0,0.0,72,0.00,,,0.00,WeatherCatV1.10B1784,2013-01-04 13:42:00,
2013-01-04 08:47:00,26.4,18.6,30.41,North,359,0.0,0.0,72,0.00,,,0.00,WeatherCatV1.10B1784,2013-01-04 13:47:00,
2013-01-04 08:52:00,26.6,18.8,30.41,North,359,0.0,0.0,72,0.00,,,0.00,WeatherCatV1.10B1784,2013-01-04 13:52:00,
2013-01-04 08:57:00,26.9,19.1,30.41,North,359,0.0,0.0,72,0.00,,,0.00,WeatherCatV1.10B1784,2013-01-04 13:57:00,
2013-01-04 09:02:00,27.0,19.2,30.41,North,359,0.0,0.0,72,0.00,,,0.00,WeatherCatV1.10B1784,2013-01-04 14:02:00,
2013-01-04 09:07:00,27.3,19.2,30.41,North,359,0.0,0.0,71,0.00,,,0.00,WeatherCatV1.10B1784,2013-01-04 14:07:00,
2013-01-04 09:12:00,27.6,19.4,30.41,North,359,0.0,0.0,71,0.00,,,0.00,WeatherCatV1.10B1784,2013-01-04 14:12:00,
2013-01-04 09:17:00,27.8,19.3,30.41,North,359,0.0,0.0,70,0.00,,,0.00,WeatherCatV1.10B1784,2013-01-04 14:17:00,
2013-01-04 09:22:00,27.9,19.1,30.41,North,359,0.0,0.0,69,0.00,,,0.00,WeatherCatV1.10B1784,2013-01-04 14:22:00,
2013-01-04 09:27:00,28.1,19.3,30.41,North,359,0.0,0.0,69,0.00,,,0.00,WeatherCatV1.10B1784,2013-01-04 14:27:00,
2013-01-04 09:32:00,28.2,19.4,30.41,North,359,0.0,0.0,69,0.00,,,0.00,WeatherCatV1.10B1784,2013-01-04 14:32:00,
2013-01-04 09:37:00,28.5,19.6,30.41,North,359,0.0,0.0,69,0.00,,,0.00,WeatherCatV1.10B1784,2013-01-04 14:37:00,
2013-01-04 09:42:00,28.7,19.5,30.41,North,357,0.0,0.0,68,0.00,,,0.00,WeatherCatV1.10B1784,2013-01-04 14:42:00,
2013-01-04 09:47:00,29.0,19.4,30.42,North,359,0.0,0.0,67,0.00,,,0.00,WeatherCatV1.10B1784,2013-01-04 14:47:00,
2013-01-04 09:52:00,29.1,19.5,30.42,North,359,0.0,0.0,67,0.00,,,0.00,WeatherCatV1.10B1784,2013-01-04 14:52:00,
2013-01-04 09:57:00,29.3,19.4,30.42,North,359,0.0,0.0,66,0.00,,,0.00,WeatherCatV1.10B1784,2013-01-04 14:57:00,
2013-01-04 10:02:00,29.5,19.6,30.41,North,359,0.0,0.0,66,0.00,,,0.00,WeatherCatV1.10B1784,2013-01-04 15:02:00,
2013-01-04 10:07:00,29.8,19.1,30.41,North,359,0.0,0.0,64,0.00,,,0.00,WeatherCatV1.10B1784,2013-01-04 15:07:00,
2013-01-04 10:12:00,30.1,19.0,30.41,North,359,0.0,0.0,63,0.00,,,0.00,WeatherCatV1.10B1784,2013-01-04 15:12:00,
2013-01-04 10:17:00,30.3,19.2,30.41,North,359,0.0,0.0,63,0.00,,,0.00,WeatherCatV1.10B1784,2013-01-04 15:17:00,
2013-01-04 10:22:00,30.6,19.1,30.41,North,359,0.0,0.0,62,0.00,,,0.00,WeatherCatV1.10B1784,2013-01-04 15:22:00,
2013-01-04 10:27:00,30.9,19.4,30.41,North,359,0.0,0.0,62,0.00,,,0.00,WeatherCatV1.10B1784,2013-01-04 15:27:00,
2013-01-04 10:32:00,31.2,19.3,30.40,North,359,0.0,0.0,61,0.00,,,0.00,WeatherCatV1.10B1784,2013-01-04 15:32:00,
2013-01-04 10:37:00,31.6,19.7,30.40,North,359,0.0,0.0,61,0.00,,,0.00,WeatherCatV1.10B1784,2013-01-04 15:37:00,
2013-01-04 10:42:00,31.8,19.5,30.40,North,359,0.0,0.0,60,0.00,,,0.00,WeatherCatV1.10B1784,2013-01-04 15:42:00,
2013-01-04 10:47:00,32.1,20.2,30.40,North,359,0.0,0.0,61,0.00,,,0.00,WeatherCatV1.10B1784,2013-01-04 15:47:00,
2013-01-04 10:52:00,32.2,20.3,30.40,North,359,0.0,0.0,61,0.00,,,0.00,WeatherCatV1.10B1784,2013-01-04 15:52:00,
2013-01-04 10:57:00,32.5,20.2,30.40,North,359,0.0,0.0,60,0.00,,,0.00,WeatherCatV1.10B1784,2013-01-04 15:57:00,
2013-01-04 11:02:00,32.8,20.9,30.39,North,359,0.0,0.0,61,0.00,,,0.00,WeatherCatV1.10B1784,2013-01-04 16:02:00,
2013-01-04 11:07:00,33.1,20.7,30.39,North,359,0.0,0.0,60,0.00,,,0.00,WeatherCatV1.10B1784,2013-01-04 16:07:00,
2013-01-04 11:12:00,33.2,20.8,30.39,North,359,0.0,0.0,60,0.00,,,0.00,WeatherCatV1.10B1784,2013-01-04 16:12:00,
2013-01-04 11:17:00,33.7,20.9,30.41,North,359,0.0,0.0,59,0.00,,,0.00,WeatherCatV1.10B1784,2013-01-04 16:17:00,
2013-01-04 11:22:00,34.1,20.5,30.41,North,359,0.0,0.0,57,0.00,,,0.00,WeatherCatV1.10B1784,2013-01-04 16:22:00,
2013-01-04 11:27:00,34.6,21.0,30.41,North,359,0.0,0.0,57,0.00,,,0.00,WeatherCatV1.10B1784,2013-01-04 16:27:00,
2013-01-04 11:32:00,34.9,21.2,30.39,North,357,0.0,0.0,57,0.00,,,0.00,WeatherCatV1.10B1784,2013-01-04 16:32:00,
2013-01-04 11:37:00,35.6,21.9,30.39,North,357,0.0,0.0,57,0.00,,,0.00,WeatherCatV1.10B1784,2013-01-04 16:37:00,
2013-01-04 11:42:00,36.6,21.5,30.39,North,359,0.0,0.0,54,0.00,,,0.00,WeatherCatV1.10B1784,2013-01-04 16:42:00,
2013-01-04 11:47:00,37.3,21.3,30.38,North,357,0.0,0.0,52,0.00,,,0.00,WeatherCatV1.10B1784,2013-01-04 16:47:00,
2013-01-04 11:52:00,38.3,20.8,30.38,North,357,0.0,0.0,49,0.00,,,0.00,WeatherCatV1.10B1784,2013-01-04 16:52:00,
2013-01-04 11:57:00,39.1,20.6,30.38,North,357,0.0,0.0,47,0.00,,,0.00,WeatherCatV1.10B1784,2013-01-04 16:57:00,
2013-01-04 12:02:00,39.5,19.4,30.37,North,359,0.0,0.0,44,0.00,,,0.00,WeatherCatV1.10B1784,2013-01-04 17:02:00,
2013-01-04 12:07:00,39.8,19.7,30.37,North,359,0.0,0.0,44,0.00,,,0.00,WeatherCatV1.10B1784,2013-01-04 17:07:00,
2013-01-04 12:12:00,40.3,19.6,30.37,North,357,0.0,0.0,43,0.00,,,0.00,WeatherCatV1.10B1784,2013-01-04 17:12:00,
2013-01-04 12:17:00,40.9,19.6,30.35,North,357,0.0,0.0,42,0.00,,,0.00,WeatherCatV1.10B1784,2013-01-04 17:17:00,
2013-01-04 12:22:00,41.5,19.0,30.35,North,357,0.0,0.0,40,0.00,,,0.00,WeatherCatV1.10B1784,2013-01-04 17:22:00,
2013-01-04 12:27:00,41.8,18.7,30.35,North,357,0.0,0.0,39,0.00,,,0.00,WeatherCatV1.10B1784,2013-01-04 17:27:00,
2013-01-04 12:32:00,41.9,17.5,30.34,North,357,0.0,0.0,37,0.00,,,0.00,WeatherCatV1.10B1784,2013-01-04 17:32:00,
2013-01-04 12:37:00,41.8,17.5,30.34,North,357,0.0,0.0,37,0.00,,,0.00,WeatherCatV1.10B1784,2013-01-04 17:37:00,
2013-01-04 12:42:00,41.6,16.0,30.34,North,359,0.0,0.0,35,0.00,,,0.00,WeatherCatV1.10B1784,2013-01-04 17:42:00,
2013-01-04 12:53:00,41.5,15.2,30.33,North,357,0.0,0.0,34,0.00,,,0.00,WeatherCatV1.10B1784,2013-01-04 17:53:00,
2013-01-04 13:21:00,43.1,17.3,30.32,North,357,0.0,0.0,35,0.00,,,0.00,WeatherCatV1.10B1784,2013-01-04 18:21:00,
2013-01-04 13:26:00,43.3,17.5,30.32,North,357,0.0,0.0,35,0.00,,,0.00,WeatherCatV1.10B1784,2013-01-04 18:26:00,
2013-01-04 13:31:00,43.3,17.5,30.32,North,357,0.0,0.0,35,0.00,,,0.00,WeatherCatV1.10B1784,2013-01-04 18:31:00,
2013-01-04 13:36:00,44.2,17.6,30.32,North,357,0.0,0.0,34,0.00,,,0.00,WeatherCatV1.10B1784,2013-01-04 18:36:00,
2013-01-04 13:41:00,44.5,17.9,30.32,North,357,0.0,0.0,34,0.00,,,0.00,WeatherCatV1.10B1784,2013-01-04 18:41:00,
2013-01-04 13:46:00,44.8,18.8,30.31,North,357,0.0,0.0,35,0.00,,,0.00,WeatherCatV1.10B1784,2013-01-04 18:46:00,
2013-01-04 13:51:00,44.6,18.7,30.31,North,357,0.0,0.0,35,0.00,,,0.00,WeatherCatV1.10B1784,2013-01-04 18:51:00,
2013-01-04 13:56:00,45.1,17.7,30.31,North,357,0.0,0.0,33,0.00,,,0.00,WeatherCatV1.10B1784,2013-01-04 18:56:00,
2013-01-04 14:01:00,45.2,16.4,30.30,North,357,0.0,0.0,31,0.00,,,0.00,WeatherCatV1.10B1784,2013-01-04 19:01:00,
2013-01-04 14:06:00,45.5,18.8,30.30,North,357,0.0,0.0,34,0.00,,,0.00,WeatherCatV1.10B1784,2013-01-04 19:06:00,
2013-01-04 14:11:00,46.2,17.3,30.30,North,357,0.0,0.0,31,0.00,,,0.00,WeatherCatV1.10B1784,2013-01-04 19:11:00,
2013-01-04 14:16:00,46.2,16.5,30.29,North,357,0.0,0.0,30,0.00,,,0.00,WeatherCatV1.10B1784,2013-01-04 19:16:00,
2013-01-04 14:21:00,46.0,17.1,30.29,North,357,0.0,0.0,31,0.00,,,0.00,WeatherCatV1.10B1784,2013-01-04 19:21:00,
2013-01-04 14:26:00,46.2,16.5,30.29,North,357,0.0,0.0,30,0.00,,,0.00,WeatherCatV1.10B1784,2013-01-04 19:26:00,
2013-01-04 14:31:00,46.2,14.9,30.29,North,357,0.0,0.0,28,0.00,,,0.00,WeatherCatV1.10B1784,2013-01-04 19:31:00,
2013-01-04 14:36:00,46.0,14.7,30.29,North,357,0.0,0.0,28,0.00,,,0.00,WeatherCatV1.10B1784,2013-01-04 19:36:00,
2013-01-04 14:41:00,45.2,16.4,30.29,North,357,0.0,0.0,31,0.00,,,0.00,WeatherCatV1.10B1784,2013-01-04 19:41:00,
2013-01-04 14:46:00,44.9,16.1,30.29,North,357,0.0,0.0,31,0.00,,,0.00,WeatherCatV1.10B1784,2013-01-04 19:46:00,
2013-01-04 14:51:00,44.5,15.8,30.29,North,357,0.0,0.0,31,0.00,,,0.00,WeatherCatV1.10B1784,2013-01-04 19:51:00,
2013-01-04 14:56:00,44.1,14.7,30.29,North,357,0.0,0.0,30,0.00,,,0.00,WeatherCatV1.10B1784,2013-01-04 19:56:00,
2013-01-04 15:01:00,43.3,15.4,30.29,North,357,0.0,0.0,32,0.00,,,0.00,WeatherCatV1.10B1784,2013-01-04 20:01:00,
2013-01-04 15:06:00,43.5,15.6,30.29,North,357,0.0,0.0,32,0.00,,,0.00,WeatherCatV1.10B1784,2013-01-04 20:06:00,
2013-01-04 15:11:00,43.8,15.2,30.29,North,357,0.0,0.0,31,0.00,,,0.00,WeatherCatV1.10B1784,2013-01-04 20:11:00,
2013-01-04 15:16:00,44.2,16.2,30.30,North,357,0.0,0.0,32,0.00,,,0.00,WeatherCatV1.10B1784,2013-01-04 20:16:00,
2013-01-04 15:21:00,44.3,-99.9,30.30,North,357,0.0,0.0,-999,0.00,,,0.00,WeatherCatV1.10B1784,2013-01-04 20:21:00,
2013-01-04 15:26:00,44.3,-99.9,30.30,North,357,0.0,0.0,-999,0.00,,,0.00,WeatherCatV1.10B1784,2013-01-04 20:26:00,
2013-01-04 15:31:00,44.6,-99.9,30.30,North,357,0.0,0.0,-999,0.00,,,0.00,WeatherCatV1.10B1784,2013-01-04 20:31:00,
2013-01-04 15:36:00,44.8,16.0,30.30,North,357,0.0,0.0,31,0.00,,,0.00,WeatherCatV1.10B1784,2013-01-04 20:36:00,
2013-01-04 15:41:00,44.5,17.9,30.30,North,357,0.0,0.0,34,0.00,,,0.00,WeatherCatV1.10B1784,2013-01-04 20:41:00,
2013-01-04 15:46:00,44.5,17.9,30.31,North,357,0.0,0.0,34,0.00,,,0.00,WeatherCatV1.10B1784,2013-01-04 20:46:00,
2013-01-04 15:51:00,44.6,18.0,30.31,North,357,0.0,0.0,34,0.00,,,0.00,WeatherCatV1.10B1784,2013-01-04 20:51:00,
2013-01-04 15:56:00,44.6,18.0,30.31,North,357,0.0,0.0,34,0.00,,,0.00,WeatherCatV1.10B1784,2013-01-04 20:56:00,
2013-01-04 16:01:00,44.5,18.6,30.32,North,357,0.0,0.0,35,0.00,,,0.00,WeatherCatV1.10B1784,2013-01-04 21:01:00,
2013-01-04 16:06:00,44.3,18.4,30.32,North,357,0.0,0.0,35,0.00,,,0.00,WeatherCatV1.10B1784,2013-01-04 21:06:00,
2013-01-04 16:11:00,44.1,19.5,30.32,North,357,0.0,0.0,37,0.00,,,0.00,WeatherCatV1.10B1784,2013-01-04 21:11:00,
2013-01-04 16:16:00,43.6,19.1,30.33,North,357,0.0,0.0,37,0.00,,,0.00,WeatherCatV1.10B1784,2013-01-04 21:16:00,
2013-01-04 16:21:00,43.6,19.1,30.33,North,357,0.0,0.0,37,0.00,,,0.00,WeatherCatV1.10B1784,2013-01-04 21:21:00,
2013-01-04 16:26:00,42.2,17.8,30.33,North,357,0.0,0.0,37,0.00,,,0.00,WeatherCatV1.10B1784,2013-01-04 21:26:00,
2013-01-04 16:31:00,41.6,18.5,30.34,North,357,0.0,0.0,39,0.00,,,0.00,WeatherCatV1.10B1784,2013-01-04 21:31:00,
2013-01-04 16:36:00,40.6,18.2,30.34,North,357,0.0,0.0,40,0.00,,,0.00,WeatherCatV1.10B1784,2013-01-04 21:36:00,
2013-01-04 16:41:00,40.1,18.3,30.34,North,357,0.0,0.0,41,0.00,,,0.00,WeatherCatV1.10B1784,2013-01-04 21:41:00,
2013-01-04 16:46:00,38.9,18.3,30.34,North,357,0.0,0.0,43,0.00,,,0.00,WeatherCatV1.10B1784,2013-01-04 21:46:00,
2013-01-04 16:51:00,38.2,18.2,30.34,North,359,0.0,0.0,44,0.00,,,0.00,WeatherCatV1.10B1784,2013-01-04 21:51:00,
2013-01-04 16:56:00,37.6,18.2,30.34,North,359,0.0,0.0,45,0.00,,,0.00,WeatherCatV1.10B1784,2013-01-04 21:56:00,
2013-01-04 17:01:00,37.2,18.8,30.36,North,359,0.0,0.0,47,0.00,,,0.00,WeatherCatV1.10B1784,2013-01-04 22:01:00,
2013-01-04 17:06:00,36.5,19.2,30.36,North,359,0.0,0.0,49,0.00,,,0.00,WeatherCatV1.10B1784,2013-01-04 22:06:00,
2013-01-04 17:11:00,36.0,19.6,30.36,North,359,0.0,0.0,51,0.00,,,0.00,WeatherCatV1.10B1784,2013-01-04 22:11:00,
2013-01-04 17:16:00,35.6,19.7,30.36,North,359,0.0,0.0,52,0.00,,,0.00,WeatherCatV1.10B1784,2013-01-04 22:16:00,
2013-01-04 17:21:00,35.3,19.9,30.36,North,359,0.0,0.0,53,0.00,,,0.00,WeatherCatV1.10B1784,2013-01-04 22:21:00,
2013-01-04 17:26:00,35.0,19.6,30.36,North,359,0.0,0.0,53,0.00,,,0.00,WeatherCatV1.10B1784,2013-01-04 22:26:00,
2013-01-04 17:31:00,34.7,19.8,30.37,North,359,0.0,0.0,54,0.00,,,0.00,WeatherCatV1.10B1784,2013-01-04 22:31:00,
2013-01-04 17:36:00,34.4,19.5,30.37,North,359,0.0,0.0,54,0.00,,,0.00,WeatherCatV1.10B1784,2013-01-04 22:36:00,
2013-01-04 17:41:00,34.1,19.2,30.37,North,359,0.0,0.0,54,0.00,,,0.00,WeatherCatV1.10B1784,2013-01-04 22:41:00,
2013-01-04 17:46:00,33.8,18.9,30.38,North,359,0.0,0.0,54,0.00,,,0.00,WeatherCatV1.10B1784,2013-01-04 22:46:00,
2013-01-04 17:51:00,33.5,18.7,30.38,North,359,0.0,0.0,54,0.00,,,0.00,WeatherCatV1.10B1784,2013-01-04 22:51:00,
2013-01-04 17:56:00,33.2,18.8,30.38,North,359,0.0,0.0,55,0.00,,,0.00,WeatherCatV1.10B1784,2013-01-04 22:56:00,
2013-01-04 18:01:00,33.1,19.5,30.39,North,359,0.0,0.0,57,0.00,,,0.00,WeatherCatV1.10B1784,2013-01-04 23:01:00,
2013-01-04 18:06:00,32.7,19.2,30.39,North,357,0.0,0.0,57,0.00,,,0.00,WeatherCatV1.10B1784,2013-01-04 23:06:00,
2013-01-04 18:11:00,32.5,19.0,30.39,North,359,0.0,0.0,57,0.00,,,0.00,WeatherCatV1.10B1784,2013-01-04 23:11:00,
2013-01-04 18:16:00,32.4,19.7,30.40,North,357,0.0,0.0,59,0.00,,,0.00,WeatherCatV1.10B1784,2013-01-04 23:16:00,
2013-01-04 18:21:00,32.2,19.5,30.40,North,357,0.0,0.0,59,0.00,,,0.00,WeatherCatV1.10B1784,2013-01-04 23:21:00,
2013-01-04 18:26:00,32.1,19.8,30.40,North,357,0.0,0.0,60,0.00,,,0.00,WeatherCatV1.10B1784,2013-01-04 23:26:00,
2013-01-04 18:31:00,31.8,19.9,30.40,North,357,0.0,0.0,61,0.00,,,0.00,WeatherCatV1.10B1784,2013-01-04 23:31:00,
2013-01-04 18:36:00,31.5,20.0,30.40,North,357,0.0,0.0,62,0.00,,,0.00,WeatherCatV1.10B1784,2013-01-04 23:36:00,
2013-01-04 18:41:00,31.3,19.8,30.40,North,357,0.0,0.0,62,0.00,,,0.00,WeatherCatV1.10B1784,2013-01-04 23:41:00,
2013-01-04 18:46:00,31.0,19.5,30.40,North,357,0.0,0.0,62,0.00,,,0.00,WeatherCatV1.10B1784,2013-01-04 23:46:00,
2013-01-04 18:51:00,30.9,19.4,30.40,North,357,0.0,0.0,62,0.00,,,0.00,WeatherCatV1.10B1784,2013-01-04 23:51:00,
2013-01-04 18:56:00,30.7,19.2,30.40,North,357,0.0,0.0,62,0.00,,,0.00,WeatherCatV1.10B1784,2013-01-04 23:56:00,
2013-01-04 19:01:00,30.7,19.2,30.41,North,359,0.0,0.0,62,0.00,,,0.00,WeatherCatV1.10B1784,2013-01-05 00:01:00,
2013-01-04 19:06:00,30.6,19.5,30.41,North,359,0.0,0.0,63,0.00,,,0.00,WeatherCatV1.10B1784,2013-01-05 00:06:00,
2013-01-04 19:11:00,30.4,19.3,30.41,North,359,0.0,0.0,63,0.00,,,0.00,WeatherCatV1.10B1784,2013-01-05 00:11:00,
2013-01-04 19:16:00,30.3,19.6,30.40,North,359,0.0,0.0,64,0.00,,,0.00,WeatherCatV1.10B1784,2013-01-05 00:16:00,
2013-01-04 19:21:00,30.3,19.6,30.40,North,359,0.0,0.0,64,0.00,,,0.00,WeatherCatV1.10B1784,2013-01-05 00:21:00,
2013-01-04 19:26:00,30.1,19.4,30.40,North,359,0.0,0.0,64,0.00,,,0.00,WeatherCatV1.10B1784,2013-01-05 00:26:00,
2013-01-04 19:31:00,30.1,19.4,30.40,North,359,0.0,0.0,64,0.00,,,0.00,WeatherCatV1.10B1784,2013-01-05 00:31:00,
2013-01-04 19:36:00,30.1,19.8,30.40,North,359,0.0,0.0,65,0.00,,,0.00,WeatherCatV1.10B1784,2013-01-05 00:36:00,
2013-01-04 19:41:00,30.0,19.7,30.40,North,359,0.0,0.0,65,0.00,,,0.00,WeatherCatV1.10B1784,2013-01-05 00:41:00,
2013-01-04 19:46:00,30.0,19.7,30.41,North,359,0.0,0.0,65,0.00,,,0.00,WeatherCatV1.10B1784,2013-01-05 00:46:00,
2013-01-04 19:51:00,29.8,19.5,30.41,North,359,0.0,0.0,65,0.00,,,0.00,WeatherCatV1.10B1784,2013-01-05 00:51:00,
2013-01-04 19:56:00,29.8,19.5,30.41,North,359,0.0,0.0,65,0.00,,,0.00,WeatherCatV1.10B1784,2013-01-05 00:56:00,
2013-01-04 20:01:00,29.7,19.4,30.42,North,357,0.0,0.0,65,0.00,,,0.00,WeatherCatV1.10B1784,2013-01-05 01:01:00,
2013-01-04 20:06:00,29.5,19.6,30.42,North,357,0.0,0.0,66,0.00,,,0.00,WeatherCatV1.10B1784,2013-01-05 01:06:00,
2013-01-04 20:11:00,29.4,19.5,30.42,North,357,0.0,0.0,66,0.00,,,0.00,WeatherCatV1.10B1784,2013-01-05 01:11:00,
2013-01-04 20:16:00,29.3,19.4,30.42,North,357,0.0,0.0,66,0.00,,,0.00,WeatherCatV1.10B1784,2013-01-05 01:16:00,
2013-01-04 20:21:00,29.3,19.7,30.42,North,357,0.0,0.0,67,0.00,,,0.00,WeatherCatV1.10B1784,2013-01-05 01:21:00,
2013-01-04 20:26:00,29.1,19.2,30.42,North,357,0.0,0.0,66,0.00,,,0.00,WeatherCatV1.10B1784,2013-01-05 01:26:00,
2013-01-04 20:31:00,29.1,19.2,30.42,North,357,0.0,0.0,66,0.00,,,0.00,WeatherCatV1.10B1784,2013-01-05 01:31:00,
2013-01-04 20:36:00,29.1,19.2,30.42,North,357,0.0,0.0,66,0.00,,,0.00,WeatherCatV1.10B1784,2013-01-05 01:36:00,
2013-01-04 20:41:00,29.1,18.8,30.42,North,357,0.0,0.0,65,0.00,,,0.00,WeatherCatV1.10B1784,2013-01-05 01:41:00,
2013-01-04 20:46:00,29.1,18.8,30.42,North,357,0.0,0.0,65,0.00,,,0.00,WeatherCatV1.10B1784,2013-01-05 01:46:00,
2013-01-04 20:51:00,29.0,18.7,30.42,North,357,0.0,0.0,65,0.00,,,0.00,WeatherCatV1.10B1784,2013-01-05 01:51:00,
2013-01-04 20:56:00,29.0,19.1,30.42,North,357,0.0,0.0,66,0.00,,,0.00,WeatherCatV1.10B1784,2013-01-05 01:56:00,
2013-01-04 21:01:00,28.8,18.9,30.42,North,357,0.0,0.0,66,0.00,,,0.00,WeatherCatV1.10B1784,2013-01-05 02:01:00,
2013-01-04 21:06:00,28.8,18.9,30.42,North,357,0.0,0.0,66,0.00,,,0.00,WeatherCatV1.10B1784,2013-01-05 02:06:00,
2013-01-04 21:16:00,28.8,18.9,30.42,North,359,0.0,0.0,66,0.00,,,0.00,WeatherCatV1.10B1784,2013-01-05 02:16:00,
2013-01-04 21:21:00,28.8,18.9,30.42,North,359,0.0,0.0,66,0.00,,,0.00,WeatherCatV1.10B1784,2013-01-05 02:21:00,
2013-01-04 21:26:00,28.7,18.8,30.42,North,359,0.0,0.0,66,0.00,,,0.00,WeatherCatV1.10B1784,2013-01-05 02:26:00,
2013-01-04 21:31:00,28.7,18.8,30.41,North,359,0.0,0.0,66,0.00,,,0.00,WeatherCatV1.10B1784,2013-01-05 02:31:00,
2013-01-04 21:36:00,28.7,18.8,30.41,North,359,0.0,0.0,66,0.00,,,0.00,WeatherCatV1.10B1784,2013-01-05 02:36:00,
2013-01-04 21:41:00,28.5,18.6,30.41,North,359,0.0,0.0,66,0.00,,,0.00,WeatherCatV1.10B1784,2013-01-05 02:41:00,
2013-01-04 21:46:00,28.5,18.6,30.41,North,359,0.0,0.0,66,0.00,,,0.00,WeatherCatV1.10B1784,2013-01-05 02:46:00,
2013-01-04 21:51:00,28.5,18.6,30.41,North,357,0.0,0.0,66,0.00,,,0.00,WeatherCatV1.10B1784,2013-01-05 02:51:00,
2013-01-04 21:56:00,28.4,18.5,30.41,North,357,0.0,0.0,66,0.00,,,0.00,WeatherCatV1.10B1784,2013-01-05 02:56:00,
2013-01-04 22:01:00,28.4,18.5,30.41,North,357,0.0,0.0,66,0.00,,,0.00,WeatherCatV1.10B1784,2013-01-05 03:01:00,
2013-01-04 22:06:00,28.4,18.5,30.41,North,357,0.0,0.0,66,0.00,,,0.00,WeatherCatV1.10B1784,2013-01-05 03:06:00,
2013-01-04 22:11:00,28.4,18.5,30.41,North,357,0.0,0.0,66,0.00,,,0.00,WeatherCatV1.10B1784,2013-01-05 03:11:00,
2013-01-04 22:16:00,28.2,18.3,30.41,North,357,0.0,0.0,66,0.00,,,0.00,WeatherCatV1.10B1784,2013-01-05 03:16:00,
2013-01-04 22:21:00,28.2,18.7,30.41,North,357,0.0,0.0,67,0.00,,,0.00,WeatherCatV1.10B1784,2013-01-05 03:21:00,
2013-01-04 22:26:00,28.2,18.7,30.41,North,357,0.0,0.0,67,0.00,,,0.00,WeatherCatV1.10B1784,2013-01-05 03:26:00,
2013-01-04 22:31:00,28.2,18.3,30.40,North,357,0.0,0.0,66,0.00,,,0.00,WeatherCatV1.10B1784,2013-01-05 03:31:00,
2013-01-04 22:36:00,28.1,18.2,30.40,North,357,0.0,0.0,66,0.00,,,0.00,WeatherCatV1.10B1784,2013-01-05 03:36:00,
2013-01-04 22:41:00,28.1,18.2,30.40,North,357,0.0,0.0,66,0.00,,,0.00,WeatherCatV1.10B1784,2013-01-05 03:41:00,
2013-01-04 22:46:00,28.1,18.2,30.41,North,357,0.0,0.0,66,0.00,,,0.00,WeatherCatV1.10B1784,2013-01-05 03:46:00,
2013-01-04 22:51:00,28.1,18.2,30.41,North,357,0.0,0.0,66,0.00,,,0.00,WeatherCatV1.10B1784,2013-01-05 03:51:00,
2013-01-04 22:56:00,28.1,18.2,30.41,North,357,0.0,0.0,66,0.00,,,0.00,WeatherCatV1.10B1784,2013-01-05 03:56:00,
2013-01-04 23:01:00,28.1,18.2,30.41,North,359,0.0,0.0,66,0.00,,,0.00,WeatherCatV1.10B1784,2013-01-05 04:01:00,
2013-01-04 23:06:00,27.9,18.0,30.41,North,357,0.0,0.0,66,0.00,,,0.00,WeatherCatV1.10B1784,2013-01-05 04:06:00,
2013-01-04 23:11:00,27.9,18.0,30.41,North,357,0.0,0.0,66,0.00,,,0.00,WeatherCatV1.10B1784,2013-01-05 04:11:00,
2013-01-04 23:16:00,27.9,17.7,30.41,North,357,0.0,0.0,65,0.00,,,0.00,WeatherCatV1.10B1784,2013-01-05 04:16:00,
2013-01-04 23:21:00,27.8,17.9,30.41,North,359,0.0,0.0,66,0.00,,,0.00,WeatherCatV1.10B1784,2013-01-05 04:21:00,
2013-01-04 23:26:00,27.8,17.9,30.41,North,359,0.0,0.0,66,0.00,,,0.00,WeatherCatV1.10B1784,2013-01-05 04:26:00,
2013-01-04 23:31:00,27.6,17.8,30.41,North,359,0.0,0.0,66,0.00,,,0.00,WeatherCatV1.10B1784,2013-01-05 04:31:00,
2013-01-04 23:36:00,27.6,17.4,30.41,North,359,0.0,0.0,65,0.00,,,0.00,WeatherCatV1.10B1784,2013-01-05 04:36:00,
2013-01-04 23:41:00,27.6,17.4,30.41,North,359,0.0,0.0,65,0.00,,,0.00,WeatherCatV1.10B1784,2013-01-05 04:41:00,
2013-01-04 23:46:00,27.6,18.1,30.41,North,359,0.0,0.0,67,0.00,,,0.00,WeatherCatV1.10B1784,2013-01-05 04:46:00,
2013-01-04 23:51:00,27.6,17.8,30.41,North,359,0.0,0.0,66,0.00,,,0.00,WeatherCatV1.10B1784,2013-01-05 04:51:00,
2013-01-04 23:56:00,27.5,17.3,30.41,North,359,0.0,0.0,65,0.00,,,0.00,WeatherCatV1.10B1784,2013-01-05 04:56:00,